[[{"header":{"parameterUnit":"m.s-1","parameterCategory":1,"la1":30.2991,"la2":30.254,"lo1":-89.0895,"lo2":-89.0444,"dy":0.0017,"dx":0.0017,"nx":28,"ny":28,"refTime":"2024-03-07T03:00:00:Z","depth":0,"parameterNumber":2,"parameterNumberName":"U-component_of_WINDS"},"data":[0,0,0,0,0,0,0,0,0,0,0,0,0,0,0,0,0,0,0,0,0,0,0,0,0,0,0,0,0,0,0,0,0,0,0,0,0,0,0,0,0,0,0,0,0,0,0,0,0,0,0,0,0,0,0,0,0,0,-1.3331,-1.3331,0,-1.3307,-1.3307,-1.3306,-1.3252,-1.3251,-1.3249,-1.3248,-1.3224,-1.3224,-1.3225,0,0,0,0,0,0,0,0,0,0,0,0,0,-1.3331,-1.3331,-1.3331,-1.3331,-1.333,-1.3307,-1.3307,-1.3306,-1.3252,-1.3251,-1.3249,-1.3248,-1.3224,-1.3224,-1.3225,0,0,0,0,0,0,0,0,0,0,0,0,0,-1.3321,-1.3331,-1.3331,-1.33,-1.3297,-1.3307,-1.3307,-1.3306,-1.3252,-1.3251,-1.3249,-1.3247,-1.3224,-1.3224,-1.3225,-1.3262,0,0,-1.3227,-1.3227,0,0,0,0,0,0,0,0,-1.3322,-1.3321,-1.3305,-1.3303,-1.3299,-1.3281,-1.3297,-1.3291,-1.3253,-1.3269,-1.3248,-1.3246,-1.3244,-1.3243,-1.3242,-1.3261,-1.326,-1.3227,-1.3227,-1.3227,-1.3227,0,0,0,0,0,0,0,-1.3322,-1.3322,-1.3321,-1.3305,-1.3301,-1.3288,-1.3285,-1.3296,-1.3267,-1.3268,-1.3264,-1.3262,-1.3242,-1.3242,-1.3241,-1.326,-1.3227,-1.3227,-1.3228,-1.3228,-1.3309,-1.3311,0,0,0,0,0,0,-1.3327,-1.3323,-1.3322,-1.3321,-1.3307,-1.329,-1.3286,-1.3288,-1.3266,-1.3261,-1.3263,-1.3259,-1.3241,-1.3241,-1.324,-1.3284,-1.3227,-1.3228,-1.3228,-1.3308,-1.331,-1.3312,0,0,0,0,0,0,-1.3328,-1.3328,-1.3323,-1.3321,-1.3319,-1.3291,-1.3294,-1.3289,-1.3288,-1.3263,-1.3257,-1.3268,-1.324,-1.3239,-1.3257,-1.3282,-1.3228,-1.3229,-1.3306,-1.3308,-1.3311,-1.337,0,0,0,0,0,0,-1.3328,-1.3328,-1.3342,-1.3321,-1.3319,-1.3341,-1.3296,-1.3289,-1.3289,-1.3284,-1.3266,-1.3261,-1.3239,-1.3257,-1.3258,-1.3282,-1.3229,-1.3303,-1.3307,-1.331,-1.3366,-1.3375,-1.3382,0,0,0,0,0,-1.3328,-1.3359,-1.3343,-1.3343,-1.3336,-1.3342,-1.3341,-1.3315,-1.3291,-1.3305,-1.3289,-1.3262,-1.3279,-1.3259,-1.326,-1.3284,-1.3302,-1.3306,-1.331,-1.3363,-1.3373,-1.3382,0,0,0,0,0,0,-1.3383,-1.3356,-1.3338,-1.3363,-1.3356,-1.3333,-1.335,-1.3326,-1.3325,-1.332,-1.3287,-1.3284,-1.3307,-1.3297,-1.3276,-1.332,-1.3286,-1.329,-1.3326,-1.3336,-1.3344,-1.3346,-1.323,0,0,0,0,0,-1.3399,-1.3406,-1.3382,-1.3407,-1.3404,-1.3378,-1.3379,-1.336,-1.335,-1.3347,-1.3332,-1.3324,-1.3328,-1.3331,-1.3333,-1.3364,-1.336,-1.3381,-1.3389,-1.3396,-1.3401,-1.3418,-1.3428,-1.3325,-1.3325,-1.3325,0,0,-1.343,-1.3416,-1.3423,-1.3418,-1.3409,-1.3418,-1.3375,-1.3386,-1.3393,-1.3348,-1.3365,-1.3354,-1.3343,-1.3369,-1.3379,-1.3361,-1.3428,-1.3401,-1.3407,-1.3408,-1.3423,-1.3433,-1.3442,-1.3328,-1.3327,-1.3327,0,0,-1.3492,-1.3482,-1.3502,-1.3495,-1.3483,-1.3466,-1.3471,-1.3452,-1.3443,-1.3459,-1.3427,-1.3434,-1.3441,-1.3435,-1.3433,-1.3494,-1.3469,-1.3495,-1.3538,-1.3555,-1.3563,-1.357,-1.3594,-1.3602,-1.35,-1.35,-1.35,0,-1.3533,-1.3545,-1.3516,-1.3529,-1.3528,-1.3489,-1.351,-1.3504,-1.3494,-1.3495,-1.3475,-1.3483,-1.3473,-1.3497,-1.3512,-1.3511,-1.3517,-1.3498,-1.3565,-1.3571,-1.3577,-1.3599,-1.3608,-1.3503,-1.3503,-1.3503,-1.3502,0,-1.3596,-1.3605,-1.3623,-1.3615,-1.3616,-1.3633,-1.3607,-1.3611,-1.3592,-1.3576,-1.3594,-1.358,-1.358,-1.3584,-1.3564,-1.3606,-1.3595,-1.357,-1.3536,-1.3591,-1.3611,-1.3619,-1.3508,-1.3507,-1.3506,-1.3505,0,0,-1.3693,-1.3669,-1.3676,-1.3672,-1.3657,-1.3663,-1.3679,-1.3678,-1.3683,-1.3677,-1.3691,-1.3698,-1.3675,-1.3673,-1.3652,-1.3667,-1.3719,-1.3641,-1.364,-1.3657,-1.3765,-1.3785,-1.3795,-1.3702,-1.3703,-1.3704,-1.3766,0,-1.3753,-1.3778,-1.3753,-1.3784,-1.3792,-1.3755,-1.3769,-1.3761,-1.3748,-1.3753,-1.3738,-1.3744,-1.3713,-1.3712,-1.3725,-1.371,-1.374,-1.3704,-1.3715,-1.3715,-1.372,-1.3805,-1.3826,-1.3885,-1.3774,-1.3775,-1.3776,0,-1.3825,-1.3824,-1.3856,-1.384,-1.3842,-1.3855,-1.3853,-1.3858,-1.3849,-1.3838,-1.3837,-1.3812,-1.3827,-1.3792,-1.3813,-1.379,-1.3792,-1.3785,-1.3787,-1.3788,-1.375,-1.381,-1.3903,-1.3913,-1.3788,-1.3787,-1.3786,0,-1.3895,-1.39,-1.392,-1.3918,-1.3899,-1.3909,-1.3902,-1.3891,-1.3893,-1.3891,-1.3892,-1.3892,-1.3892,-1.3893,-1.387,-1.3846,-1.3894,-1.3857,-1.3886,-1.3887,-1.3899,-1.3899,-1.3995,-1.3898,-1.3898,-1.3898,-1.3898,0,-1.3964,-1.3986,-1.3951,-1.3964,-1.3987,-1.3958,-1.3982,-1.397,-1.3961,-1.3972,-1.3939,-1.395,-1.3917,-1.3924,-1.3906,-1.3927,-1.3927,-1.3919,-1.3914,-1.3923,-1.3924,-1.3925,-1.3921,-1.39,-1.39,-1.3899,-1.3899,0,-1.4046,-1.4024,-1.4044,-1.4024,-1.402,-1.4038,-1.4022,-1.4033,-1.4017,-1.4031,-1.4032,-1.4008,-1.4015,-1.3991,-1.3994,-1.3982,-1.4013,-1.4,-1.4016,-1.4013,-1.4044,-1.4042,-1.4146,-1.4159,-1.4052,-1.4053,-1.4054,0,-1.4093,-1.4108,-1.4091,-1.4096,-1.409,-1.4098,-1.41,-1.4072,-1.4075,-1.4067,-1.4079,-1.4083,-1.4085,-1.4098,-1.4081,-1.4083,-1.4071,-1.4108,-1.4072,-1.408,-1.4074,-1.4074,-1.4076,-1.4116,-1.4117,-1.4118,-1.4119,0,-1.4179,-1.4167,-1.4171,-1.4171,-1.4175,-1.4174,-1.417,-1.4176,-1.4146,-1.4151,-1.4158,-1.416,-1.4163,-1.4168,-1.4167,-1.4159,-1.4135,-1.413,-1.4137,-1.4147,-1.4156,-1.4153,-1.4038,-1.4128,-1.4127,-1.4127,-1.4126,-1.4126,-1.4245,-1.4258,-1.4248,-1.4254,-1.4249,-1.4247,-1.4257,-1.4243,-1.4248,-1.4249,-1.4232,-1.4242,-1.4234,-1.423,-1.4225,-1.4233,-1.4216,-1.4226,-1.4229,-1.4233,-1.4239,-1.4154,-1.4233,-1.4232,-1.4232,-1.4232,-1.4232,0,-1.433,-1.4323,-1.4328,-1.4325,-1.433,-1.4306,-1.4301,-1.4307,-1.4317,-1.4311,-1.4314,-1.4323,-1.4328,-1.4311,-1.4314,-1.4324,-1.4313,-1.4326,-1.4326,-1.4325,-1.4253,-1.4247,-1.4335,-1.4335,-1.4335,-1.4335,-1.4335,-1.4335,-1.4376,-1.4397,-1.4384,-1.4403,-1.4394,-1.4405,-1.4405,-1.4403,-1.4398,-1.441,-1.4414,-1.4403,-1.4393,-1.4395,-1.4399,-1.4394,-1.4397,-1.4415,-1.4406,-1.4339,-1.4329,-1.432,-1.4314,-1.4415,-1.4415,-1.4477,-1.4478,-1.4478]},{"header":{"parameterUnit":"m.s-1","parameterCategory":1,"la1":30.2991,"la2":30.254,"lo1":-89.0895,"lo2":-89.0444,"dy":0.0017,"dx":0.0017,"nx":28,"ny":28,"refTime":"2024-03-07T03:00:00:Z","depth":0,"parameterNumber":3,"parameterNumberName":"V-component_of_WINDS"},"data":[0,0,0,0,0,0,0,0,0,0,0,0,0,0,0,0,0,0,0,0,0,0,0,0,0,0,0,0,0,0,0,0,0,0,0,0,0,0,0,0,0,0,0,0,0,0,0,0,0,0,0,0,0,0,0,0,0,0,-0.2051,-0.2051,0,-0.2059,-0.206,-0.206,-0.2093,-0.2094,-0.2095,-0.2096,-0.2104,-0.2103,-0.2103,0,0,0,0,0,0,0,0,0,0,0,0,0,-0.2065,-0.2065,-0.2051,-0.2051,-0.2052,-0.2059,-0.206,-0.206,-0.2093,-0.2094,-0.2095,-0.2096,-0.2104,-0.2103,-0.2102,0,0,0,0,0,0,0,0,0,0,0,0,0,-0.2065,-0.2064,-0.2051,-0.2069,-0.2071,-0.2059,-0.206,-0.206,-0.2093,-0.2094,-0.2095,-0.2096,-0.2104,-0.2103,-0.2102,-0.2074,0,0,-0.21,-0.21,0,0,0,0,0,0,0,0,-0.2065,-0.2064,-0.2067,-0.2068,-0.207,-0.2077,-0.2067,-0.2064,-0.2093,-0.2085,-0.2096,-0.2097,-0.2094,-0.2094,-0.2093,-0.2074,-0.2075,-0.21,-0.2099,-0.2099,-0.2099,0,0,0,0,0,0,0,-0.2065,-0.2064,-0.2055,-0.2067,-0.2069,-0.2077,-0.2078,-0.2067,-0.2082,-0.2085,-0.2088,-0.2088,-0.2095,-0.2093,-0.2093,-0.2075,-0.21,-0.2099,-0.2099,-0.2098,-0.2034,-0.2033,0,0,0,0,0,0,-0.2062,-0.2064,-0.2054,-0.2055,-0.207,-0.2076,-0.2077,-0.2073,-0.2083,-0.2085,-0.2087,-0.209,-0.2094,-0.2094,-0.2094,-0.2062,-0.2099,-0.2098,-0.2098,-0.2035,-0.2034,-0.2033,0,0,0,0,0,0,-0.2062,-0.2061,-0.2054,-0.206,-0.206,-0.2074,-0.207,-0.2073,-0.2071,-0.2084,-0.2087,-0.2083,-0.2095,-0.2095,-0.2079,-0.2062,-0.2098,-0.2097,-0.2037,-0.2035,-0.2033,-0.1997,0,0,0,0,0,0,-0.2062,-0.2061,-0.205,-0.2059,-0.2059,-0.2039,-0.2069,-0.2072,-0.207,-0.2073,-0.2081,-0.2083,-0.2096,-0.208,-0.2078,-0.2062,-0.2097,-0.2038,-0.2036,-0.2034,-0.2,-0.1994,-0.1989,0,0,0,0,0,-0.2063,-0.2039,-0.205,-0.2048,-0.2046,-0.2038,-0.2038,-0.2053,-0.2069,-0.2058,-0.2066,-0.2083,-0.2064,-0.2078,-0.2076,-0.2059,-0.204,-0.2037,-0.2034,-0.2002,-0.1995,-0.1989,0,0,0,0,0,0,-0.2028,-0.2041,-0.2052,-0.2031,-0.2033,-0.2044,-0.2031,-0.2045,-0.2043,-0.2046,-0.2065,-0.2066,-0.2048,-0.2052,-0.2067,-0.2033,-0.2055,-0.2051,-0.2031,-0.2024,-0.2019,-0.2019,-0.2096,0,0,0,0,0,-0.2018,-0.201,-0.2022,-0.2002,-0.2002,-0.2016,-0.2013,-0.2025,-0.2028,-0.2029,-0.2036,-0.2038,-0.2033,-0.2029,-0.2024,-0.2,-0.2002,-0.1988,-0.1982,-0.1978,-0.1975,-0.1963,-0.1957,-0.2023,-0.2023,-0.2024,0,0,-0.1997,-0.2003,-0.1997,-0.1995,-0.1998,-0.199,-0.2017,-0.2007,-0.2001,-0.2027,-0.2013,-0.2018,-0.2022,-0.2002,-0.1993,-0.2004,-0.1957,-0.1975,-0.1971,-0.1971,-0.196,-0.1953,-0.1948,-0.2022,-0.2022,-0.2022,0,0,-0.1954,-0.1958,-0.1942,-0.1944,-0.1949,-0.1958,-0.1954,-0.1963,-0.1967,-0.1953,-0.1973,-0.1966,-0.1956,-0.1958,-0.1957,-0.1915,-0.1931,-0.1913,-0.1886,-0.1874,-0.1869,-0.1864,-0.185,-0.1845,-0.191,-0.191,-0.191,0,-0.1928,-0.1916,-0.1932,-0.1921,-0.192,-0.1943,-0.1927,-0.1929,-0.1931,-0.193,-0.1942,-0.1931,-0.1935,-0.1916,-0.1905,-0.1904,-0.1901,-0.1913,-0.1868,-0.1864,-0.186,-0.1846,-0.1841,-0.1908,-0.1908,-0.1908,-0.1909,0,-0.1883,-0.1875,-0.1861,-0.1864,-0.1861,-0.1847,-0.1861,-0.1857,-0.1868,-0.1876,-0.1861,-0.1867,-0.1864,-0.186,-0.1871,-0.1843,-0.185,-0.1865,-0.1888,-0.1851,-0.1839,-0.1834,-0.1905,-0.1906,-0.1906,-0.1907,0,0,-0.182,-0.1831,-0.1826,-0.1827,-0.1833,-0.1827,-0.1814,-0.1812,-0.1808,-0.1808,-0.1799,-0.179,-0.1804,-0.1803,-0.1814,-0.1804,-0.1771,-0.182,-0.1821,-0.1812,-0.174,-0.173,-0.1723,-0.1781,-0.178,-0.1779,-0.174,0,-0.178,-0.176,-0.1774,-0.1751,-0.1744,-0.1765,-0.1755,-0.1757,-0.1764,-0.1759,-0.1766,-0.176,-0.1779,-0.1779,-0.1769,-0.1777,-0.1757,-0.178,-0.1772,-0.1772,-0.1772,-0.1717,-0.1705,-0.1669,-0.1735,-0.1735,-0.1734,0,-0.1731,-0.173,-0.1706,-0.1714,-0.1712,-0.1702,-0.1701,-0.1695,-0.1698,-0.1704,-0.1704,-0.1718,-0.1706,-0.1727,-0.1712,-0.1727,-0.1724,-0.1728,-0.1727,-0.1727,-0.1751,-0.1717,-0.1657,-0.1652,-0.1726,-0.1727,-0.1728,0,-0.1688,-0.1681,-0.1666,-0.1666,-0.1675,-0.1667,-0.167,-0.1675,-0.1672,-0.1671,-0.167,-0.1667,-0.1666,-0.1664,-0.1677,-0.1691,-0.1659,-0.1682,-0.1664,-0.1664,-0.1657,-0.1658,-0.1597,-0.1654,-0.1654,-0.1654,-0.1654,0,-0.1643,-0.1628,-0.1647,-0.1638,-0.1621,-0.1638,-0.1621,-0.1626,-0.163,-0.1623,-0.1641,-0.1633,-0.165,-0.1644,-0.1654,-0.164,-0.1639,-0.1644,-0.1647,-0.1643,-0.1642,-0.1642,-0.1645,-0.1653,-0.1653,-0.1653,-0.1654,0,-0.1593,-0.1605,-0.159,-0.1599,-0.1601,-0.1589,-0.1597,-0.1589,-0.1597,-0.1587,-0.1585,-0.1598,-0.1592,-0.1604,-0.16,-0.1607,-0.1587,-0.1593,-0.1586,-0.1588,-0.157,-0.1572,-0.1508,-0.1501,-0.1561,-0.1561,-0.156,0,-0.1564,-0.1553,-0.1561,-0.1557,-0.1559,-0.1553,-0.1551,-0.1566,-0.1563,-0.1565,-0.1557,-0.1553,-0.155,-0.1539,-0.1548,-0.1545,-0.1552,-0.153,-0.1552,-0.1548,-0.1553,-0.1553,-0.1553,-0.1526,-0.1525,-0.1524,-0.1524,0,-0.1511,-0.1517,-0.1514,-0.1512,-0.1508,-0.1508,-0.1508,-0.1504,-0.152,-0.1515,-0.151,-0.1508,-0.1503,-0.1499,-0.1497,-0.15,-0.1515,-0.1517,-0.1513,-0.1509,-0.1505,-0.1508,-0.1574,-0.1518,-0.1519,-0.1519,-0.152,-0.152,-0.1471,-0.1463,-0.1467,-0.1462,-0.1464,-0.1464,-0.1457,-0.1464,-0.146,-0.1457,-0.1466,-0.1458,-0.1462,-0.1462,-0.1463,-0.1457,-0.1467,-0.1461,-0.146,-0.1458,-0.1456,-0.1505,-0.1457,-0.1457,-0.1457,-0.1457,-0.1457,0,-0.1421,-0.1424,-0.1419,-0.142,-0.1416,-0.1429,-0.143,-0.1426,-0.1419,-0.1421,-0.1418,-0.1411,-0.1407,-0.1415,-0.1412,-0.1405,-0.1412,-0.1404,-0.1405,-0.1406,-0.1447,-0.1451,-0.1399,-0.1399,-0.1399,-0.1399,-0.1399,-0.1399,-0.1394,-0.138,-0.1387,-0.1374,-0.1378,-0.1371,-0.137,-0.137,-0.1372,-0.1364,-0.136,-0.1365,-0.137,-0.1367,-0.1364,-0.1366,-0.1364,-0.1354,-0.1359,-0.1397,-0.1403,-0.1408,-0.1413,-0.1354,-0.1354,-0.1319,-0.1319,-0.1319]}]]